Погода в Бармуте

Великобритания     52°43′32″N   4°03′17″W
темп.,
°C
ветер,
м/с
пор.,
м/с
влажн.,
%
обл.,
%
осадки,
мм/ч
давл.,
гПа
погр.,
м
11 мая, вт
вт1101:00+6ю489111 0.9 1003410
04:00+5юв349444 0.1 1003209
07:00+6вюв23896 0.1 1004141
10:00+9юв467590 0.0 1005996
13:00+10юв467198 0.5 1004808
16:00+11ю257466 2.4 1004734
19:00+10ююз017692 3.8 1003562
22:00+8юз348788 0.7 1005224
12 мая, ср
ср1201:00+7ююз469183 0.9 1006342
04:00+6ююв3592100 0.2 1006280
07:00+7ю479254 0.9 1007426
10:00+9ююз57774 0.3 10081021
13:00+11юз35665 0.5 1008961
16:00+11зюз236651 0.3 1008772
19:00+9ююз1179100 0.6 100870
22:00+8в1192100 1.2 100963
13 мая, чт
чт1301:00+8ссв3495100 5.0 1008165
04:00+8св4891100 1.1 1007325
07:00+8св4890100 1.3 1007392
10:00+11всв4878100 0.0 1007637
13:00+14всв5761100 0.0 10071087
16:00+13всв5871100 1.1 1007917
19:00+11всв3585100 2.6 1008313
22:00+9св3591100 1.1 1009182
14 мая, пт
пт1401:00+7св3490100 1.1 101096
04:00+6всв3487100 0.0 101179
07:00+7всв338651 0.0 1011112
10:00+11всв126813 0.0 1012664
13:00+11з217193 0.5 1012593
16:00+11з117389 0.8 1012445
19:00+11зюз01733 1.1 1010394
22:00+8ююв11835 0.2 101111
15 мая, сб
сб1501:00+7юв1186100 0.2 101044
04:00+7юв2290100 0.0 100967
07:00+8юв2288100 0.0 1007128
10:00+11ю5876100 0.2 10061078
13:00+9юв41088100 2.8 1005976
16:00+10ююз368943 0.4 1005499
19:00+10юз59886 0.7 1005572
22:00+9ююз6109442 0.1 1006526